Weather in Kalinino

Russia / Perm Krai     57°19′42″N   56°19′57″E
temp.,
°C
wind,
m/s
gust,
m/s
humid.,
%
clouds,
%
prec.,
mm/h
press.,
hPa
HPBL,
m
27 february, sat
sat2723:00−21sse259889 0.0 101998
02:00−21se259848 0.0 1016105
05:00−21ese279473 0.0 1014155
08:00−20ese3995100 0.0 1011252
11:00−16ese5992100 0.1 1009368
14:00−14ese5994100 0.6 1007519
17:00−12e5894100 1.2 1007615
20:00−15e51095100 0.5 1007441
28 february, sun
sun2823:00−17e51096100 0.8 1007450
02:00−18ene5996100 0.1 1007413
05:00−18ene51196100 0.3 1007427
08:00−17ene51195100 0.3 1007462
11:00−16ene61094100 0.6 1007503
14:00−15ne61092100 0.3 1007539
17:00−14ne51093100 0.5 1009538
20:00−16ne51095100 0.3 1011447
1 march, mon
mon123:00−18ne4996100 0.3 1014349
02:00−21ne379899 0.0 1015187
05:00−23nne259897 0.1 101797
08:00−25nne239992 0.0 101984
11:00−20ne259584 0.0 1020238
14:00−15ne249062 0.0 1020371
17:00−14ene239174 0.0 1020329
20:00−20nw019832 0.0 102020
2 march, tue
tue223:00−20ssw129716 0.0 102020
02:00−21sw22970 0.0 101820
05:00−22sw22999 0.0 101727
08:00−22ssw239974 0.0 101566
11:00−18ssw499487 0.0 1013334
14:00−15ssw51190100 0.0 1011433
17:00−14s51290100 0.0 1008436
20:00−14ssw51192100 0.2 1007482
3 march, wed
wed323:00−15ssw41092100 0.3 1006493
02:00−15s31094100 0.1 1005431
05:00−15s3895100 0.6 1004401
08:00−15s2696100 0.4 1004315
11:00−13sse2393100 1.1 1004305
14:00−10se1189100 0.5 1003372
17:00−10ene1191100 0.6 1003240
20:00−12nne119799 0.2 100321